Location: Artiguedieu
(43.5000°N, 0.5454°E)
Time: 14:37:36
(UTC+00:00)

SR - Pass Details

Date: 09 August 2021
Orbit: 581 x 874 km, 66.7° (Epoch: 18 September)

Event Time Altitude Azimuth Distance (km) Brightness Sun altitude
Exits shadow 02:14:51 - 141° (SE) 3,003 ? -23.5°
Reaches altitude 10° 02:17:57 10° 116° (ESE) 2,468 ? -23.2°
Maximum altitude 02:19:15 11° 103° (ESE) 2,399 ? -23.0°
Drops below altitude 10° 02:20:33 10° 89° (E) 2,441 ? -22.9°
Sets 02:25:08 0° 54° (NE) 3,311 ? -22.4°
